When you browse on this site, cookies collect data to enhance your experience and personalize the content and advertising you see.
Visit our Privacy Policy to learn more. By continuing to use the site, you agree to this use of cookies and data.
  • en France
  • Liste des pays
  • À 7 jours
  • Température de l'eau
  • Carte météo
  • Widgets météo
  • user-avatar
    Se connecter

    Météo par heure à Moutare

    Ce jour, 26 Août, Lundi

    Heure Température Précipitation Vent Pression Humidité
    00:00 +14°C° 0 mm 1 m/s 656 mmHg 89%
    01:00 +14°C° 0 mm 1 m/s 656 mmHg 91%
    02:00 +13°C° 0 mm 1 m/s 656 mmHg 92%
    03:00 +13°C° 0 mm 1 m/s 655 mmHg 92%
    04:00 +13°C° 0 mm 1 m/s 655 mmHg 91%
    05:00 +12°C° 0 mm 0 m/s 655 mmHg 91%
    06:00 +14°C° 0 mm 0 m/s 656 mmHg 79%
    07:00 +17°C° 0 mm 0 m/s 657 mmHg 67%
    08:00 +19°C° 0 mm 0 m/s 658 mmHg 54%
    09:00 +22°C° 0 mm 0 m/s 659 mmHg 45%
    10:00 +27°C° 0 mm 1 m/s 659 mmHg 35%
    11:00 +31°C° 0 mm 1 m/s 660 mmHg 25%
    12:00 +31°C° 0 mm 1 m/s 659 mmHg 24%
    13:00 +31°C° 0 mm 2 m/s 658 mmHg 22%
    14:00 +31°C° 0 mm 2 m/s 657 mmHg 21%
    15:00 +30°C° 0 mm 2 m/s 657 mmHg 23%
    16:00 +28°C° 0 mm 2 m/s 656 mmHg 26%
    17:00 +27°C° 0 mm 2 m/s 656 mmHg 28%
    18:00 +25°C° 0 mm 2 m/s 656 mmHg 34%
    19:00 +22°C° 0 mm 3 m/s 656 mmHg 39%
    20:00 +20°C° 0 mm 3 m/s 656 mmHg 45%
    21:00 +19°C° 0 mm 2 m/s 656 mmHg 48%
    22:00 +18°C° 0 mm 2 m/s 655 mmHg 50%
    23:00 +17°C° 0 mm 2 m/s 655 mmHg 53%

    Demain, 27 Août, Mardi

    Heure Température Précipitation Vent Pression Humidité
    00:00 +16°C° 0 mm 1 m/s 655 mmHg 57%
    01:00 +15°C° 0 mm 1 m/s 655 mmHg 61%
    02:00 +15°C° 0 mm 1 m/s 655 mmHg 65%
    03:00 +14°C° 0 mm 1 m/s 654 mmHg 67%
    04:00 +14°C° 0 mm 1 m/s 654 mmHg 68%
    05:00 +14°C° 0 mm 1 m/s 654 mmHg 69%
    06:00 +16°C° 0 mm 0 m/s 655 mmHg 60%
    07:00 +18°C° 0 mm 0 m/s 656 mmHg 50%
    08:00 +21°C° 0 mm 0 m/s 657 mmHg 41%
    09:00 +26°C° 0 mm 1 m/s 658 mmHg 35%
    10:00 +28°C° 0 mm 1 m/s 658 mmHg 29%
    11:00 +31°C° 0 mm 1 m/s 659 mmHg 23%
    12:00 +31°C° 0 mm 2 m/s 658 mmHg 22%
    13:00 +31°C° 0 mm 2 m/s 657 mmHg 21%
    14:00 +31°C° 0 mm 2 m/s 656 mmHg 20%
    15:00 +30°C° 0 mm 3 m/s 656 mmHg 22%
    16:00 +29°C° 0 mm 3 m/s 655 mmHg 24%
    17:00 +28°C° 0 mm 3 m/s 655 mmHg 26%
    18:00 +26°C° 0 mm 3 m/s 655 mmHg 31%
    19:00 +22°C° 0 mm 3 m/s 655 mmHg 37%
    20:00 +20°C° 0 mm 3 m/s 655 mmHg 42%
    21:00 +19°C° 0 mm 3 m/s 655 mmHg 47%
    22:00 +18°C° 0 mm 2 m/s 655 mmHg 51%
    23:00 +17°C° 0 mm 2 m/s 655 mmHg 56%

    Après-demain, 28 Août, Mercredi

    Heure Température Précipitation Vent Pression Humidité
    00:00 +16°C° 0 mm 2 m/s 654 mmHg 64%
    01:00 +15°C° 0 mm 1 m/s 654 mmHg 72%
    02:00 +14°C° 0 mm 1 m/s 654 mmHg 81%
    03:00 +14°C° 0 mm 1 m/s 653 mmHg 82%
    04:00 +14°C° 0 mm 1 m/s 653 mmHg 83%
    05:00 +13°C° 0 mm 1 m/s 653 mmHg 84%
    06:00 +16°C° 0 mm 1 m/s 654 mmHg 71%
    07:00 +20°C° 0 mm 1 m/s 655 mmHg 58%
    08:00 +21°C° 0 mm 0 m/s 656 mmHg 45%
    09:00 +25°C° 0 mm 1 m/s 657 mmHg 37%
    10:00 +28°C° 0 mm 1 m/s 657 mmHg 30%
    11:00 +31°C° 0 mm 2 m/s 658 mmHg 23%
    12:00 +31°C° 0 mm 2 m/s 657 mmHg 22%
    13:00 +31°C° 0 mm 3 m/s 656 mmHg 22%
    14:00 +31°C° 0 mm 3 m/s 655 mmHg 21%
    15:00 +30°C° 0 mm 3 m/s 655 mmHg 23%
    16:00 +29°C° 0 mm 4 m/s 655 mmHg 25%
    17:00 +27°C° 0 mm 4 m/s 654 mmHg 27%
    18:00 +25°C° 0 mm 3 m/s 654 mmHg 32%
    19:00 +22°C° 0 mm 3 m/s 655 mmHg 37%
    20:00 +20°C° 0 mm 3 m/s 655 mmHg 42%
    21:00 +19°C° 0 mm 2 m/s 655 mmHg 47%
    22:00 +18°C° 0 mm 2 m/s 655 mmHg 51%
    23:00 +17°C° 0 mm 2 m/s 655 mmHg 55%

    29 Août, Jeudi

    Heure Température Précipitation Vent Pression Humidité
    00:00 +16°C° 0 mm 2 m/s 654 mmHg 65%
    01:00 +15°C° 0 mm 2 m/s 654 mmHg 75%
    02:00 +14°C° 0 mm 1 m/s 653 mmHg 84%
    03:00 +14°C° 0 mm 1 m/s 653 mmHg 87%
    04:00 +14°C° 0 mm 1 m/s 653 mmHg 91%
    05:00 +14°C° 0 mm 1 m/s 653 mmHg 94%
    06:00 +16°C° 0 mm 1 m/s 654 mmHg 84%
    07:00 +18°C° 0 mm 1 m/s 655 mmHg 74%
    08:00 +20°C° 0 mm 1 m/s 656 mmHg 64%
    09:00 +23°C° 0 mm 2 m/s 657 mmHg 52%
    10:00 +25°C° 0 mm 3 m/s 657 mmHg 41%
    11:00 +28°C° 0 mm 3 m/s 657 mmHg 30%
    12:00 +28°C° 0 mm 3 m/s 657 mmHg 27%
    13:00 +29°C° 0 mm 4 m/s 656 mmHg 25%
    14:00 +29°C° 0 mm 4 m/s 655 mmHg 23%
    15:00 +28°C° 0 mm 4 m/s 655 mmHg 25%
    16:00 +27°C° 0 mm 4 m/s 655 mmHg 27%
    17:00 +26°C° 0 mm 4 m/s 655 mmHg 30%
    18:00 +23°C° 0 mm 4 m/s 655 mmHg 37%
    19:00 +21°C° 0 mm 4 m/s 655 mmHg 44%
    20:00 +19°C° 0 mm 3 m/s 655 mmHg 50%
    21:00 +18°C° 0 mm 3 m/s 655 mmHg 63%
    22:00 +17°C° 0 mm 3 m/s 655 mmHg 76%
    23:00 +16°C° 0 mm 2 m/s 654 mmHg 88%

    30 Août, Vendredi

    Heure Température Précipitation Vent Pression Humidité
    00:00 +15°C° 0 mm 2 m/s 654 mmHg 89%
    01:00 +15°C° 0 mm 2 m/s 654 mmHg 90%
    02:00 +15°C° 0 mm 2 m/s 654 mmHg 91%
    03:00 +15°C° 0 mm 2 m/s 653 mmHg 92%
    04:00 +15°C° 0 mm 2 m/s 653 mmHg 92%
    05:00 +15°C° 0 mm 2 m/s 653 mmHg 93%
    06:00 +16°C° 0 mm 2 m/s 654 mmHg 84%
    07:00 +17°C° 0 mm 2 m/s 654 mmHg 75%
    08:00 +19°C° 0 mm 2 m/s 655 mmHg 67%
    09:00 +23°C° 0 mm 2 m/s 655 mmHg 54%
    10:00 +25°C° 0 mm 2 m/s 656 mmHg 40%
    11:00 +28°C° 0 mm 3 m/s 656 mmHg 27%
    12:00 +29°C° 0 mm 3 m/s 655 mmHg 24%
    13:00 +30°C° 0 mm 3 m/s 655 mmHg 21%
    14:00 +30°C° 0 mm 3 m/s 654 mmHg 19%
    15:00 +29°C° 0 mm 3 m/s 654 mmHg 21%
    16:00 +28°C° 0 mm 3 m/s 653 mmHg 23%
    17:00 +27°C° 0 mm 2 m/s 653 mmHg 25%
    18:00 +25°C° 0 mm 2 m/s 653 mmHg 30%
    19:00 +21°C° 0 mm 2 m/s 653 mmHg 36%
    20:00 +19°C° 0 mm 2 m/s 652 mmHg 41%
    21:00 +18°C° 0 mm 2 m/s 652 mmHg 46%
    22:00 +17°C° 0 mm 2 m/s 652 mmHg 50%
    23:00 +16°C° 0 mm 1 m/s 652 mmHg 54%

    31 Août, Samedi

    Heure Température Précipitation Vent Pression Humidité
    00:00 +16°C° 0 mm 1 m/s 651 mmHg 57%
    01:00 +15°C° 0 mm 1 m/s 651 mmHg 60%
    02:00 +15°C° 0 mm 1 m/s 650 mmHg 62%
    03:00 +14°C° 0 mm 1 m/s 650 mmHg 63%
    04:00 +14°C° 0 mm 1 m/s 650 mmHg 64%
    05:00 +13°C° 0 mm 1 m/s 650 mmHg 65%
    06:00 +16°C° 0 mm 1 m/s 651 mmHg 55%
    07:00 +18°C° 0 mm 0 m/s 652 mmHg 44%
    08:00 +21°C° 0 mm 0 m/s 653 mmHg 34%
    09:00 +25°C° 0 mm 0 m/s 654 mmHg 26%
    10:00 +29°C° 0 mm 0 m/s 654 mmHg 19%
    11:00 +33°C° 0 mm 0 m/s 655 mmHg 12%
    12:00 +35°C° 0 mm 1 m/s 654 mmHg 11%
    13:00 +35°C° 0 mm 1 m/s 653 mmHg 11%
    14:00 +36°C° 0 mm 1 m/s 652 mmHg 10%
    15:00 +34°C° 0 mm 1 m/s 652 mmHg 12%
    16:00 +33°C° 0 mm 1 m/s 651 mmHg 13%
    17:00 +31°C° 0 mm 1 m/s 651 mmHg 14%
    18:00 +29°C° 0 mm 2 m/s 650 mmHg 17%
    19:00 +26°C° 0 mm 2 m/s 650 mmHg 19%
    20:00 +24°C° 0 mm 2 m/s 650 mmHg 22%
    21:00 +23°C° 0 mm 2 m/s 650 mmHg 25%
    22:00 +22°C° 0 mm 1 m/s 650 mmHg 27%
    23:00 +21°C° 0 mm 1 m/s 650 mmHg 30%
    Voir plus